星链-30293 (STARLINK-30293 )

导读

STARLINK-30293是美国太空探索技术公司(SpaceX)星链星座的一颗卫星,于2023年8月17日发射入轨。星链项目旨在构建全球卫星互联网星座,为全球偏远地区、海洋、空中等区域提供高速互联网接入服务,这颗卫星是星链大规模组网进程中的组成单元,服务于全球卫星互联网覆盖的构建。

基本信息
目录编号:
57649
目录名称:
STARLINK-30293
国际标识:
2023-122T
轨道中心:
EARTH
卫星名称:
星链-30293
卫星全名:
星链-30293 (STARLINK-30293 )
卫星状态:
已陨落 最后检测时间 2024-05-09
发射日期:
2023-08-17 UTC
国别 :
美国 (US)
星等 :
--
轨道信息
数据来源 国际轨道数据
星历时间: 2024-05-09T05:28:17+0800
轨道信息已过期810天
半长轴: 6583.836km
偏心率: 0.0020862
轨道倾角: 42.982°
近地点辐角 219.808°
升交点赤经 58.464°
平近点角 310.675°
近地点: 191.965km
远地点: 219.437km
周期: 88.609分钟
每日圈数: 16.251158
详细信息
固有亮度:
5
最大亮度:
0.3
卫星平台:
Starlink v2.0 mini
覆盖范围:
全球
运营商:
太空探索技术公司
运营商所在国:
美国
制造商(研发单位):
太空探索技术公司
制造商所在国:
美国
使用方式:
暂无
卫星简介
星链(Starlink)计划是由太空探索技术公司(SpaceX)提出的一个巨型低轨卫星互联网星座项目,计划在2019年至2024年间在太空搭建由约1.2万颗卫星组成的“星链”网络,其中1584颗将部署在地球上空550千米处的近地轨道,并从2020年开始工作。该卫星已陨落。